• En España
  • Lista de países
  • Para 7 días
  • Temperatura del agua
  • Mapa Satelital
  • El tiempo en el mapa
  • Informadores
  • user-avatar
    Iniciar sesión

    Tiempo cada hora Oruro

    Hoy, 19 Septiembre, Miércoles

    Tiempo Temperatura Precipitaciones Viento Presión Humedad
    00:00 +5°C° 0 mm 3 mps 474 mmHg 40%
    01:00 +5°C° 0 mm 2 mps 474 mmHg 44%
    02:00 +4°C° 0 mm 2 mps 473 mmHg 49%
    03:00 +4°C° 0 mm 2 mps 473 mmHg 46%
    04:00 +3°C° 0 mm 2 mps 472 mmHg 44%
    05:00 +3°C° 0 mm 1 mps 471 mmHg 42%
    06:00 +5°C° 0 mm 1 mps 473 mmHg 35%
    07:00 +6°C° 0 mm 1 mps 474 mmHg 29%
    08:00 +7°C° 0 mm 1 mps 475 mmHg 22%
    09:00 +8°C° 0 mm 2 mps 476 mmHg 18%
    10:00 +10°C° 0 mm 3 mps 478 mmHg 13%
    11:00 +13°C° 0 mm 3 mps 479 mmHg 9%
    12:00 +14°C° 0 mm 4 mps 479 mmHg 7%
    13:00 +15°C° 0 mm 4 mps 479 mmHg 6%
    14:00 +17°C° 0 mm 4 mps 479 mmHg 4%
    15:00 +17°C° 0 mm 4 mps 479 mmHg 4%
    16:00 +17°C° 0 mm 4 mps 479 mmHg 5%
    17:00 +17°C° 0 mm 4 mps 478 mmHg 5%
    18:00 +14°C° 0 mm 3 mps 477 mmHg 11%
    19:00 +12°C° 0 mm 3 mps 477 mmHg 17%
    20:00 +10°C° 0 mm 2 mps 476 mmHg 24%
    21:00 +9°C° 0 mm 2 mps 476 mmHg 31%
    22:00 +8°C° 0 mm 2 mps 476 mmHg 39%
    23:00 +7°C° 0 mm 2 mps 476 mmHg 46%

    Mañana, 20 Septiembre, Jueves

    Tiempo Temperatura Precipitaciones Viento Presión Humedad
    00:00 +6°C° 0 mm 2 mps 475 mmHg 52%
    01:00 +6°C° 0 mm 2 mps 475 mmHg 58%
    02:00 +5°C° 0 mm 2 mps 474 mmHg 64%
    03:00 +5°C° 0 mm 2 mps 474 mmHg 67%
    04:00 +4°C° 0 mm 2 mps 473 mmHg 71%
    05:00 +3°C° 0 mm 2 mps 473 mmHg 74%
    06:00 +5°C° 0 mm 2 mps 474 mmHg 64%
    07:00 +6°C° 0 mm 2 mps 475 mmHg 54%
    08:00 +7°C° 0 mm 3 mps 476 mmHg 44%
    09:00 +9°C° 0 mm 3 mps 477 mmHg 34%
    10:00 +11°C° 0 mm 4 mps 478 mmHg 24%
    11:00 +13°C° 0 mm 4 mps 480 mmHg 15%
    12:00 +14°C° 0 mm 4 mps 480 mmHg 13%
    13:00 +16°C° 0 mm 3 mps 480 mmHg 11%
    14:00 +18°C° 0 mm 3 mps 479 mmHg 9%
    15:00 +18°C° 0 mm 3 mps 479 mmHg 9%
    16:00 +18°C° 0 mm 3 mps 479 mmHg 10%
    17:00 +18°C° 0 mm 4 mps 479 mmHg 10%
    18:00 +15°C° 0 mm 4 mps 478 mmHg 19%
    19:00 +13°C° 0 mm 4 mps 478 mmHg 27%
    20:00 +11°C° 0 mm 4 mps 477 mmHg 36%
    21:00 +10°C° 0 mm 4 mps 477 mmHg 44%
    22:00 +8°C° 0 mm 4 mps 477 mmHg 52%
    23:00 +7°C° 0 mm 4 mps 477 mmHg 61%

    Pasado mañana, 21 Septiembre, Viernes

    Tiempo Temperatura Precipitaciones Viento Presión Humedad
    00:00 +7°C° 0 mm 3 mps 476 mmHg 63%
    01:00 +7°C° 0 mm 3 mps 475 mmHg 65%
    02:00 +6°C° 0 mm 2 mps 475 mmHg 68%
    03:00 +6°C° 0 mm 2 mps 474 mmHg 70%
    04:00 +5°C° 0 mm 2 mps 474 mmHg 71%
    05:00 +4°C° 0 mm 2 mps 473 mmHg 73%
    06:00 +6°C° 0 mm 2 mps 474 mmHg 68%
    07:00 +7°C° 0 mm 2 mps 475 mmHg 62%
    08:00 +8°C° 0 mm 2 mps 477 mmHg 57%
    09:00 +10°C° 0 mm 2 mps 478 mmHg 46%
    10:00 +12°C° 0 mm 2 mps 479 mmHg 36%
    11:00 +13°C° 0 mm 3 mps 480 mmHg 26%
    12:00 +16°C° 0 mm 2 mps 480 mmHg 22%
    13:00 +17°C° 0 mm 2 mps 480 mmHg 19%
    14:00 +18°C° 0 mm 2 mps 480 mmHg 15%
    15:00 +18°C° 0 mm 3 mps 479 mmHg 16%
    16:00 +17°C° 0 mm 3 mps 479 mmHg 17%
    17:00 +17°C° 0 mm 3 mps 479 mmHg 18%
    18:00 +15°C° 0 mm 4 mps 478 mmHg 27%
    19:00 +13°C° 0 mm 5 mps 478 mmHg 36%
    20:00 +10°C° 0 mm 6 mps 477 mmHg 45%
    21:00 +9°C° 0 mm 6 mps 477 mmHg 48%
    22:00 +9°C° 0 mm 5 mps 477 mmHg 50%
    23:00 +8°C° 0 mm 4 mps 477 mmHg 52%

    22 Septiembre, Sábado

    Tiempo Temperatura Precipitaciones Viento Presión Humedad
    00:00 +7°C° 0 mm 4 mps 476 mmHg 54%
    01:00 +8°C° 0 mm 3 mps 476 mmHg 57%
    02:00 +7°C° 0 mm 3 mps 475 mmHg 59%
    03:00 +5°C° 0 mm 3 mps 475 mmHg 61%
    04:00 +5°C° 0 mm 3 mps 474 mmHg 63%
    05:00 +4°C° 0 mm 3 mps 474 mmHg 66%
    06:00 +5°C° 0 mm 3 mps 475 mmHg 61%
    07:00 +7°C° 0 mm 3 mps 476 mmHg 57%
    08:00 +8°C° 0 mm 3 mps 477 mmHg 53%
    09:00 +10°C° 0 mm 3 mps 478 mmHg 44%
    10:00 +12°C° 0 mm 3 mps 479 mmHg 36%
    11:00 +14°C° 0 mm 3 mps 480 mmHg 27%
    12:00 +16°C° 0 mm 3 mps 480 mmHg 25%
    13:00 +17°C° 0 mm 3 mps 480 mmHg 22%
    14:00 +18°C° 0 mm 4 mps 479 mmHg 19%
    15:00 +17°C° 0 mm 4 mps 479 mmHg 21%
    16:00 +17°C° 0 mm 4 mps 478 mmHg 23%
    17:00 +15°C° 0 mm 5 mps 478 mmHg 25%
    18:00 +14°C° 0 mm 5 mps 477 mmHg 33%
    19:00 +12°C° 0 mm 5 mps 477 mmHg 41%
    20:00 +9°C° 0 mm 6 mps 476 mmHg 49%
    21:00 +9°C° 0 mm 5 mps 476 mmHg 50%
    22:00 +8°C° 0 mm 4 mps 476 mmHg 50%
    23:00 +9°C° 0 mm 3 mps 477 mmHg 51%

    23 Septiembre, Domingo

    Tiempo Temperatura Precipitaciones Viento Presión Humedad
    00:00 +9°C° 0 mm 3 mps 476 mmHg 52%
    01:00 +8°C° 0 mm 3 mps 476 mmHg 53%
    02:00 +8°C° 0 mm 3 mps 475 mmHg 55%
    03:00 +8°C° 0 mm 3 mps 475 mmHg 57%
    04:00 +7°C° 0 mm 3 mps 474 mmHg 60%
    05:00 +7°C° 0 mm 3 mps 474 mmHg 62%
    06:00 +8°C° 0 mm 3 mps 475 mmHg 58%
    07:00 +8°C° 0 mm 3 mps 476 mmHg 53%
    08:00 +9°C° 0 mm 3 mps 477 mmHg 48%
    09:00 +11°C° 0 mm 3 mps 478 mmHg 41%
    10:00 +13°C° 0 mm 4 mps 479 mmHg 34%
    11:00 +14°C° 0 mm 4 mps 479 mmHg 27%
    12:00 +15°C° 0 mm 4 mps 479 mmHg 24%
    13:00 +16°C° 0 mm 5 mps 479 mmHg 22%
    14:00 +17°C° 0 mm 6 mps 479 mmHg 20%
    15:00 +16°C° 0 mm 6 mps 479 mmHg 22%
    16:00 +16°C° 0 mm 7 mps 478 mmHg 24%
    17:00 +15°C° 0 mm 8 mps 478 mmHg 27%
    18:00 +12°C° 0.1 mm 7 mps 477 mmHg 34%
    19:00 +11°C° 0.1 mm 7 mps 477 mmHg 40%
    20:00 +9°C° 0.1 mm 6 mps 476 mmHg 47%
    21:00 +8°C° 0 mm 5 mps 476 mmHg 49%
    22:00 +8°C° 0 mm 4 mps 476 mmHg 51%
    23:00 +8°C° 0 mm 3 mps 476 mmHg 53%

    24 Septiembre, Lunes

    Tiempo Temperatura Precipitaciones Viento Presión Humedad
    00:00 +8°C° 0 mm 3 mps 475 mmHg 55%
    01:00 +7°C° 0 mm 3 mps 475 mmHg 57%
    02:00 +7°C° 0 mm 3 mps 474 mmHg 59%
    03:00 +5°C° 0 mm 3 mps 474 mmHg 62%
    04:00 +5°C° 0 mm 3 mps 474 mmHg 64%
    05:00 +4°C° 0 mm 3 mps 474 mmHg 66%
    06:00 +5°C° 0 mm 3 mps 475 mmHg 61%
    07:00 +7°C° 0 mm 3 mps 476 mmHg 56%
    08:00 +7°C° 0 mm 4 mps 476 mmHg 50%
    09:00 +10°C° 0 mm 4 mps 477 mmHg 44%
    10:00 +11°C° 0 mm 4 mps 478 mmHg 37%
    11:00 +13°C° 0 mm 5 mps 479 mmHg 30%
    12:00 +14°C° 0 mm 5 mps 479 mmHg 30%
    13:00 +14°C° 0 mm 5 mps 479 mmHg 29%
    14:00 +15°C° 0 mm 5 mps 478 mmHg 28%
    15:00 +14°C° 0.3 mm 6 mps 478 mmHg 32%
    16:00 +13°C° 0.3 mm 6 mps 477 mmHg 37%
    17:00 +11°C° 0.3 mm 7 mps 477 mmHg 41%
    18:00 +10°C° 2.4 mm 5 mps 476 mmHg 49%
    19:00 +8°C° 2.4 mm 4 mps 475 mmHg 58%
    20:00 +7°C° 2.4 mm 3 mps 475 mmHg 67%
    21:00 +8°C° 0.4 mm 3 mps 475 mmHg 62%
    22:00 +8°C° 0.4 mm 3 mps 476 mmHg 58%
    23:00 +9°C° 0.4 mm 2 mps 476 mmHg 53%
    Mostrar más